Tracking 25693 objects as of 1-Jul-2022
HD Live streaming from Space Station
objects crossing your sky now

FENGYUN 1C DEB

Track FENGYUN 1C DEB now!
10-day predictions


NORAD ID: 46986
Int'l Code: 1999-025EZL
Perigee: 679.3 km
Apogee: 846.4 km
Inclination: 98.4 °
Period: 99.9 minutes
Semi major axis: 7133 km
RCS: Unknown
Launch date: May 10, 1999
Source: People's Republic of China (PRC)
Launch site: Taiyaun Space Center, China (TSC)

Note: This is SATELLITE DEBRIS
aabbcc
Your satellite tracking list
Your tracking list is empty




NASA's NSSDC Master Catalog

Two Line Element Set (TLE):
1 46986U 99025EZL 22178.36660686  .00000763  00000-0  23250-3 0  9990
2 46986  98.3710 216.9607 0117180  83.0562 278.3940 14.40845677451588
Source of the keplerian elements: AFSPC